{"data":{"norad_id":45098,"epoch":"2026-05-25T00:13:17.426208Z","epoch_age_seconds":84934,"freshness":"FRESH","line1":"1 45098U 20006BG  26145.00922947  .00018991  00000+0  10590-2 0  9999","line2":"2 45098  53.0524 259.7791 0003798   5.4581 354.6452 15.13611299348582","mean_motion":15.13611299,"eccentricity":0.0003798,"inclination_deg":53.0524,"raan_deg":259.7791,"arg_perigee_deg":5.4581,"mean_anomaly_deg":354.6452,"bstar":0.001059,"rev_number":34858,"period_min":95.136710524781,"perigee_km":522.57587396121,"apogee_km":527.81964704529,"semimajor_km":6903.3347605033,"source":"CELESTRAK","updated_at":"2026-05-25T13:38:16.380750Z"}}